Retour au catalogue

CZ-6A DEB

ActifSSO
NORAD 54923·DEBRIS·🇨🇳 China

Lancé Nov 11, 2022 depuis Taiyuan Satellite Launch Center

Loading…

Prochains Passages (prochaines 24 heures)

TLE

FraisSource: Space-Track

Époque: Sep 14, 2026, 11:19 UTC

1 54923U 22151RL  26257.47202786  .00000111  00000-0  89187-4 0  9992
2 54923  98.8624 252.8062 0055367 103.7042 257.0300 14.08252035193741

Suivez CZ-6A DEB en temps réel avec AllMySat

Download on the App Store